Year,Month,Day,Hour,Minute,Value (Times are PST for windspeed in km/hr)
2019,01,18,00,00,0.00
2019,01,18,00,01,0.00
2019,01,18,00,02,0.00
2019,01,18,00,03,0.00
2019,01,18,00,04,0.00
2019,01,18,00,05,0.00
2019,01,18,00,06,0.00
2019,01,18,00,07,0.00
2019,01,18,00,08,0.00
2019,01,18,00,09,0.00
2019,01,18,00,10,0.00
2019,01,18,00,11,0.00
2019,01,18,00,12,2.50
2019,01,18,00,13,6.40
2019,01,18,00,14,11.50
2019,01,18,00,15,8.40
2019,01,18,00,16,4.80
2019,01,18,00,17,10.90
2019,01,18,00,18,6.80
2019,01,18,00,19,2.60
2019,01,18,00,20,2.20
2019,01,18,00,21,0.80
2019,01,18,00,22,9.80
2019,01,18,00,23,5.50
2019,01,18,00,24,8.50
2019,01,18,00,25,3.60
2019,01,18,00,26,2.60
2019,01,18,00,27,3.30
2019,01,18,00,28,8.20
2019,01,18,00,29,5.10
2019,01,18,00,30,1.60
2019,01,18,00,31,4.70
2019,01,18,00,32,5.40
2019,01,18,00,33,7.80
2019,01,18,00,34,12.80
2019,01,18,00,35,10.00
2019,01,18,00,36,11.70
2019,01,18,00,37,3.80
2019,01,18,00,38,3.30
2019,01,18,00,39,4.40
2019,01,18,00,40,4.90
2019,01,18,00,41,1.60
2019,01,18,00,42,3.50
2019,01,18,00,43,5.20
2019,01,18,00,44,6.30
2019,01,18,00,45,3.80
2019,01,18,00,46,9.80
2019,01,18,00,47,7.50
2019,01,18,00,48,6.40
2019,01,18,00,49,8.50
2019,01,18,00,50,1.50
2019,01,18,00,51,14.80
2019,01,18,00,52,4.20
2019,01,18,00,53,6.90
2019,01,18,00,54,4.80
2019,01,18,00,55,8.70
2019,01,18,00,56,5.00
2019,01,18,00,57,5.90
2019,01,18,00,58,4.10
2019,01,18,00,59,6.40
2019,01,18,01,00,2.40
2019,01,18,01,01,1.20
2019,01,18,01,02,0.00
2019,01,18,01,03,2.80
2019,01,18,01,04,4.20
2019,01,18,01,05,4.30
2019,01,18,01,06,2.90
2019,01,18,01,07,1.80
2019,01,18,01,08,1.90
2019,01,18,01,09,4.60
2019,01,18,01,10,6.10
2019,01,18,01,11,1.40
2019,01,18,01,12,4.80
2019,01,18,01,13,3.10
2019,01,18,01,14,8.70
2019,01,18,01,15,5.70
2019,01,18,01,16,6.10
2019,01,18,01,17,1.00
2019,01,18,01,18,2.60
2019,01,18,01,19,3.90
2019,01,18,01,20,8.00
2019,01,18,01,21,3.20
2019,01,18,01,22,4.40
2019,01,18,01,23,5.50
2019,01,18,01,24,2.30
2019,01,18,01,25,4.60
2019,01,18,01,26,5.80
2019,01,18,01,27,3.60
2019,01,18,01,28,5.40
2019,01,18,01,29,5.40
2019,01,18,01,30,6.00
2019,01,18,01,31,3.30
2019,01,18,01,32,1.50
2019,01,18,01,33,3.20
2019,01,18,01,34,1.90
2019,01,18,01,35,2.90
2019,01,18,01,36,1.60
2019,01,18,01,37,2.00
2019,01,18,01,38,0.00
2019,01,18,01,39,1.70
2019,01,18,01,40,2.10
2019,01,18,01,41,1.70
2019,01,18,01,42,2.70
2019,01,18,01,43,0.80
2019,01,18,01,44,2.40
2019,01,18,01,45,3.30
2019,01,18,01,46,5.00
2019,01,18,01,47,1.80
2019,01,18,01,48,1.40
2019,01,18,01,49,3.00
2019,01,18,01,50,2.80
2019,01,18,01,51,3.60
2019,01,18,01,52,3.80
2019,01,18,01,53,1.80
2019,01,18,01,54,2.00
2019,01,18,01,55,2.30
2019,01,18,01,56,2.20
2019,01,18,01,57,5.60
2019,01,18,01,58,9.10
2019,01,18,01,59,6.50
2019,01,18,02,00,4.70
2019,01,18,02,01,8.50
2019,01,18,02,02,1.60
2019,01,18,02,03,2.10
2019,01,18,02,04,1.60
2019,01,18,02,05,1.40
2019,01,18,02,06,4.30
2019,01,18,02,07,4.50
2019,01,18,02,08,5.80
2019,01,18,02,09,0.90
2019,01,18,02,10,0.50
2019,01,18,02,11,1.70
2019,01,18,02,12,2.00
2019,01,18,02,13,0.70
2019,01,18,02,14,0.20
2019,01,18,02,15,1.30
2019,01,18,02,16,1.70
2019,01,18,02,17,1.20
2019,01,18,02,18,1.80
2019,01,18,02,19,0.50
2019,01,18,02,20,0.10
2019,01,18,02,21,1.90
2019,01,18,02,22,2.50
2019,01,18,02,23,1.70
2019,01,18,02,24,1.70
2019,01,18,02,25,2.30
2019,01,18,02,26,2.10
2019,01,18,02,27,2.10
2019,01,18,02,28,2.40
2019,01,18,02,29,1.60
2019,01,18,02,30,0.70
2019,01,18,02,31,0.40
2019,01,18,02,32,1.00
2019,01,18,02,33,3.00
2019,01,18,02,34,0.70
2019,01,18,02,35,0.00
2019,01,18,02,36,0.00
2019,01,18,02,37,0.00
2019,01,18,02,38,0.00
2019,01,18,02,39,0.00
2019,01,18,02,40,0.00
2019,01,18,02,41,0.00
2019,01,18,02,42,0.00
2019,01,18,02,43,0.00
2019,01,18,02,44,0.00
2019,01,18,02,45,0.00
2019,01,18,02,46,0.00
2019,01,18,02,47,0.00
2019,01,18,02,48,0.00
2019,01,18,02,49,0.00
2019,01,18,02,50,0.00
2019,01,18,02,51,0.00
2019,01,18,02,52,0.00
2019,01,18,02,53,0.00
2019,01,18,02,54,0.00
2019,01,18,02,55,0.00
2019,01,18,02,56,0.00
2019,01,18,02,57,0.00
2019,01,18,02,58,0.00
2019,01,18,02,59,0.00
2019,01,18,03,00,0.00
2019,01,18,03,01,0.00
2019,01,18,03,02,0.00
2019,01,18,03,03,0.00
2019,01,18,03,04,0.00
2019,01,18,03,05,0.00
2019,01,18,03,06,0.00
2019,01,18,03,07,0.00
2019,01,18,03,08,0.00
2019,01,18,03,09,0.00
2019,01,18,03,10,0.00
2019,01,18,03,11,0.00
2019,01,18,03,12,0.00
2019,01,18,03,13,0.00
2019,01,18,03,14,0.00
2019,01,18,03,15,0.00
2019,01,18,03,16,0.00
2019,01,18,03,17,0.00
2019,01,18,03,18,0.00
2019,01,18,03,19,0.00
2019,01,18,03,20,0.00
2019,01,18,03,21,0.00
2019,01,18,03,22,0.00
2019,01,18,03,23,0.00
2019,01,18,03,24,0.00
2019,01,18,03,25,0.00
2019,01,18,03,26,0.00
2019,01,18,03,27,0.00
2019,01,18,03,28,0.00
2019,01,18,03,29,0.00
2019,01,18,03,30,0.00
2019,01,18,03,31,0.00
2019,01,18,03,32,0.00
2019,01,18,03,33,0.00
2019,01,18,03,34,0.00
2019,01,18,03,35,0.00
2019,01,18,03,36,0.00
2019,01,18,03,37,0.00
2019,01,18,03,38,0.00
2019,01,18,03,39,0.00
2019,01,18,03,40,1.50
2019,01,18,03,41,2.20
2019,01,18,03,42,3.60
2019,01,18,03,43,2.40
2019,01,18,03,44,1.00
2019,01,18,03,45,5.30
2019,01,18,03,46,3.30
2019,01,18,03,47,3.30
2019,01,18,03,48,1.90
2019,01,18,03,49,0.70
2019,01,18,03,50,0.40
2019,01,18,03,51,0.00
2019,01,18,03,52,1.40
2019,01,18,03,53,2.60
2019,01,18,03,54,3.30
2019,01,18,03,55,4.30
2019,01,18,03,56,1.40
2019,01,18,03,57,0.30
2019,01,18,03,58,0.40
2019,01,18,03,59,0.00
2019,01,18,04,00,0.00
2019,01,18,04,01,0.00
2019,01,18,04,02,0.00
2019,01,18,04,03,0.00
2019,01,18,04,04,0.00
2019,01,18,04,05,0.00
2019,01,18,04,06,0.00
2019,01,18,04,07,0.00
2019,01,18,04,08,0.00
2019,01,18,04,09,0.00
2019,01,18,04,10,0.00
2019,01,18,04,11,0.00
2019,01,18,04,12,0.00
2019,01,18,04,13,0.00
2019,01,18,04,14,0.00
2019,01,18,04,15,0.00
2019,01,18,04,16,0.00
2019,01,18,04,17,0.00
2019,01,18,04,18,0.00
2019,01,18,04,19,0.00
2019,01,18,04,20,0.00
2019,01,18,04,21,0.00
2019,01,18,04,22,0.00
2019,01,18,04,23,0.00
2019,01,18,04,24,0.00
2019,01,18,04,25,0.00
2019,01,18,04,26,0.00
2019,01,18,04,27,0.00
2019,01,18,04,28,0.00
2019,01,18,04,29,0.00
2019,01,18,04,30,0.00
2019,01,18,04,31,0.00
2019,01,18,04,32,0.00
2019,01,18,04,33,0.00
2019,01,18,04,34,0.00
2019,01,18,04,35,0.00
2019,01,18,04,36,0.00
2019,01,18,04,37,0.00
2019,01,18,04,38,0.00
2019,01,18,04,39,0.00
2019,01,18,04,40,0.00
2019,01,18,04,41,1.60
2019,01,18,04,42,1.60
2019,01,18,04,43,0.20
2019,01,18,04,44,0.00
2019,01,18,04,45,0.00
2019,01,18,04,46,0.80
2019,01,18,04,47,1.30
2019,01,18,04,48,0.20
2019,01,18,04,49,0.00
2019,01,18,04,50,0.40
2019,01,18,04,51,2.90
2019,01,18,04,52,2.70
2019,01,18,04,53,1.50
2019,01,18,04,54,0.00
2019,01,18,04,55,0.00
2019,01,18,04,56,1.50
2019,01,18,04,57,0.60
2019,01,18,04,58,1.00
2019,01,18,04,59,0.00
2019,01,18,05,00,0.00
2019,01,18,05,01,0.60
2019,01,18,05,02,0.00
2019,01,18,05,03,1.30
2019,01,18,05,04,3.70
2019,01,18,05,05,1.40
2019,01,18,05,06,0.30
2019,01,18,05,07,3.10
2019,01,18,05,08,3.50
2019,01,18,05,09,0.00
2019,01,18,05,10,0.00
2019,01,18,05,11,0.00
2019,01,18,05,12,0.00
2019,01,18,05,13,0.00
2019,01,18,05,14,0.00
2019,01,18,05,15,0.00
2019,01,18,05,16,0.00
2019,01,18,05,17,0.00
2019,01,18,05,18,0.00
2019,01,18,05,19,0.00
2019,01,18,05,20,0.00
2019,01,18,05,21,0.00
2019,01,18,05,22,0.00
2019,01,18,05,23,0.00
2019,01,18,05,24,0.00
2019,01,18,05,25,0.00
2019,01,18,05,26,0.00
2019,01,18,05,27,0.00
2019,01,18,05,28,0.00
2019,01,18,05,29,0.00
2019,01,18,05,30,0.20
2019,01,18,05,31,0.40
2019,01,18,05,32,0.00
2019,01,18,05,33,0.00
2019,01,18,05,34,0.00
2019,01,18,05,35,0.00
2019,01,18,05,36,0.00
2019,01,18,05,37,0.00
2019,01,18,05,38,0.00
2019,01,18,05,39,0.00
2019,01,18,05,40,0.00
2019,01,18,05,41,0.20
2019,01,18,05,42,0.60
2019,01,18,05,43,0.00
2019,01,18,05,44,0.00
2019,01,18,05,45,0.00
2019,01,18,05,46,0.00
2019,01,18,05,47,0.00
2019,01,18,05,48,0.00
2019,01,18,05,49,0.50
2019,01,18,05,50,1.10
2019,01,18,05,51,0.00
2019,01,18,05,52,0.00
2019,01,18,05,53,0.00
2019,01,18,05,54,0.00
2019,01,18,05,55,0.00
2019,01,18,05,56,0.00
2019,01,18,05,57,0.00
2019,01,18,05,58,0.00
2019,01,18,05,59,0.00
2019,01,18,06,00,0.00
2019,01,18,06,01,0.00
2019,01,18,06,02,0.00
2019,01,18,06,03,0.00
2019,01,18,06,04,0.00
2019,01,18,06,05,0.00
2019,01,18,06,06,0.00
2019,01,18,06,07,0.00
2019,01,18,06,08,0.00
2019,01,18,06,09,0.00
2019,01,18,06,10,0.00
2019,01,18,06,11,0.00
2019,01,18,06,12,0.00
2019,01,18,06,13,0.00
2019,01,18,06,14,0.40
2019,01,18,06,15,1.90
2019,01,18,06,16,0.50
2019,01,18,06,17,1.80
2019,01,18,06,18,2.60
2019,01,18,06,19,0.30
2019,01,18,06,20,2.50
2019,01,18,06,21,0.50
2019,01,18,06,22,0.60
2019,01,18,06,23,2.50
2019,01,18,06,24,6.10
2019,01,18,06,25,8.10
2019,01,18,06,26,4.50
2019,01,18,06,27,3.50
2019,01,18,06,28,4.60
2019,01,18,06,29,2.90
2019,01,18,06,30,2.30
2019,01,18,06,31,1.30
2019,01,18,06,32,2.70
2019,01,18,06,33,5.20
2019,01,18,06,34,3.80
2019,01,18,06,35,7.30
2019,01,18,06,36,10.80
2019,01,18,06,37,3.00
2019,01,18,06,38,5.20
2019,01,18,06,39,3.20
2019,01,18,06,40,1.30
2019,01,18,06,41,0.20
2019,01,18,06,42,0.00
2019,01,18,06,43,0.00
2019,01,18,06,44,0.00
2019,01,18,06,45,0.00
2019,01,18,06,46,0.00
2019,01,18,06,47,0.00
2019,01,18,06,48,0.00
2019,01,18,06,49,1.00
2019,01,18,06,50,1.90
2019,01,18,06,51,2.50
2019,01,18,06,52,4.70
2019,01,18,06,53,2.40
2019,01,18,06,54,3.30
2019,01,18,06,55,1.10
2019,01,18,06,56,0.80
2019,01,18,06,57,0.10
2019,01,18,06,58,3.00
2019,01,18,06,59,3.40
2019,01,18,07,00,0.20
2019,01,18,07,01,3.50
2019,01,18,07,02,4.30
2019,01,18,07,03,4.50
2019,01,18,07,04,0.10
2019,01,18,07,05,0.00
2019,01,18,07,06,0.00
2019,01,18,07,07,0.00
2019,01,18,07,08,5.20
2019,01,18,07,09,4.60
2019,01,18,07,10,1.40
2019,01,18,07,11,1.40
2019,01,18,07,12,3.90
2019,01,18,07,13,5.90
2019,01,18,07,14,7.60
2019,01,18,07,15,1.60
2019,01,18,07,16,1.90
2019,01,18,07,17,1.70
2019,01,18,07,18,1.00
2019,01,18,07,19,2.80
2019,01,18,07,20,1.50
2019,01,18,07,21,0.00
2019,01,18,07,22,0.10
2019,01,18,07,23,2.60
2019,01,18,07,24,5.10
2019,01,18,07,25,4.80
2019,01,18,07,26,2.00
2019,01,18,07,27,6.10
2019,01,18,07,28,9.70
2019,01,18,07,29,5.50
2019,01,18,07,30,1.10
2019,01,18,07,31,0.40
2019,01,18,07,32,2.00
2019,01,18,07,33,2.90
2019,01,18,07,34,1.10
2019,01,18,07,35,2.50
2019,01,18,07,36,0.00
2019,01,18,07,37,3.90
2019,01,18,07,38,2.80
2019,01,18,07,39,3.60
2019,01,18,07,40,0.40
2019,01,18,07,41,0.50
2019,01,18,07,42,2.40
2019,01,18,07,43,2.90
2019,01,18,07,44,6.40
2019,01,18,07,45,1.60
2019,01,18,07,46,1.40
2019,01,18,07,47,1.40
2019,01,18,07,48,0.40
2019,01,18,07,49,1.00
2019,01,18,07,50,1.60
2019,01,18,07,51,0.30
2019,01,18,07,52,0.20
2019,01,18,07,53,1.60
2019,01,18,07,54,2.00
2019,01,18,07,55,5.70
2019,01,18,07,56,2.10
2019,01,18,07,57,0.90
2019,01,18,07,58,2.60
2019,01,18,07,59,0.30
2019,01,18,08,00,0.00
2019,01,18,08,01,0.00
2019,01,18,08,02,3.20
2019,01,18,08,03,1.80
2019,01,18,08,04,0.10
2019,01,18,08,05,0.00
2019,01,18,08,06,1.00
2019,01,18,08,07,2.00
2019,01,18,08,08,0.10
2019,01,18,08,09,0.00
2019,01,18,08,10,2.00
2019,01,18,08,11,1.20
2019,01,18,08,12,3.60
2019,01,18,08,13,1.50
2019,01,18,08,14,5.20
2019,01,18,08,15,1.10
2019,01,18,08,16,1.60
2019,01,18,08,17,0.40
2019,01,18,08,18,0.40
2019,01,18,08,19,0.20
2019,01,18,08,20,3.10
2019,01,18,08,21,0.40
2019,01,18,08,22,1.40
2019,01,18,08,23,2.70
2019,01,18,08,24,1.00
2019,01,18,08,25,0.40
2019,01,18,08,26,0.00
2019,01,18,08,27,2.10
2019,01,18,08,28,1.70
2019,01,18,08,29,1.00
2019,01,18,08,30,0.20
2019,01,18,08,31,2.70
2019,01,18,08,32,2.60
2019,01,18,08,33,4.40
2019,01,18,08,34,2.60
2019,01,18,08,35,0.40
2019,01,18,08,36,3.70
2019,01,18,08,37,4.50
2019,01,18,08,38,5.80
2019,01,18,08,39,5.70
2019,01,18,08,40,3.00
2019,01,18,08,41,4.60
2019,01,18,08,42,3.50
2019,01,18,08,43,3.40
2019,01,18,08,44,1.70
2019,01,18,08,45,0.00
2019,01,18,08,46,0.00
2019,01,18,08,47,0.00
2019,01,18,08,48,0.00
2019,01,18,08,49,0.00
2019,01,18,08,50,2.60
2019,01,18,08,51,2.60
2019,01,18,08,52,0.20
2019,01,18,08,53,0.00
2019,01,18,08,54,0.80
2019,01,18,08,55,2.10
2019,01,18,08,56,1.80
2019,01,18,08,57,0.80
2019,01,18,08,58,0.00
2019,01,18,08,59,0.10
2019,01,18,09,00,2.30
2019,01,18,09,01,2.90
2019,01,18,09,02,3.30
2019,01,18,09,03,2.30
2019,01,18,09,04,3.00
2019,01,18,09,05,3.10
2019,01,18,09,06,2.80
2019,01,18,09,07,1.70
2019,01,18,09,08,1.90
2019,01,18,09,09,2.00
2019,01,18,09,10,1.70
2019,01,18,09,11,2.00
2019,01,18,09,12,3.10
2019,01,18,09,13,1.40
2019,01,18,09,14,1.80
2019,01,18,09,15,1.30
2019,01,18,09,16,0.10
2019,01,18,09,17,0.00
2019,01,18,09,18,0.00
2019,01,18,09,19,0.00
2019,01,18,09,20,0.00
2019,01,18,09,21,0.00
2019,01,18,09,22,0.00
2019,01,18,09,23,0.00
2019,01,18,09,24,0.00
2019,01,18,09,25,0.00
2019,01,18,09,26,0.00
2019,01,18,09,27,0.00
2019,01,18,09,28,0.00
2019,01,18,09,29,0.00
2019,01,18,09,30,0.00
2019,01,18,09,31,0.00
2019,01,18,09,32,0.00
2019,01,18,09,33,0.00
2019,01,18,09,34,0.00
2019,01,18,09,35,0.00
2019,01,18,09,36,0.00
2019,01,18,09,37,0.00
2019,01,18,09,38,0.00
2019,01,18,09,39,0.00
2019,01,18,09,40,0.00
2019,01,18,09,41,0.00
2019,01,18,09,42,0.00
2019,01,18,09,43,0.00
2019,01,18,09,44,0.00
2019,01,18,09,45,0.00
2019,01,18,09,46,0.00
2019,01,18,09,47,0.00
2019,01,18,09,48,0.00
2019,01,18,09,49,0.00
2019,01,18,09,50,0.00
2019,01,18,09,51,0.00
2019,01,18,09,52,0.00
2019,01,18,09,53,0.00
2019,01,18,09,54,0.00
2019,01,18,09,55,0.00
2019,01,18,09,56,0.00
2019,01,18,09,57,0.00
2019,01,18,09,58,1.60
2019,01,18,09,59,0.20
2019,01,18,10,00,0.00
2019,01,18,10,01,0.00
2019,01,18,10,02,0.00
2019,01,18,10,03,0.00
2019,01,18,10,04,0.00
2019,01,18,10,05,0.00
2019,01,18,10,06,0.00
2019,01,18,10,07,0.00
2019,01,18,10,08,0.00
2019,01,18,10,09,0.00
2019,01,18,10,10,0.00
2019,01,18,10,11,0.00
2019,01,18,10,12,0.00
2019,01,18,10,13,0.00
2019,01,18,10,14,0.00
2019,01,18,10,15,0.00
2019,01,18,10,16,0.00
2019,01,18,10,17,0.00
2019,01,18,10,18,0.00
2019,01,18,10,19,0.00
2019,01,18,10,20,0.00
2019,01,18,10,21,0.00
2019,01,18,10,22,0.00
2019,01,18,10,23,0.00
2019,01,18,10,24,0.00
2019,01,18,10,25,0.00
2019,01,18,10,26,0.00
2019,01,18,10,27,0.00
2019,01,18,10,28,0.00
2019,01,18,10,29,0.00
2019,01,18,10,30,3.20
2019,01,18,10,31,2.30
2019,01,18,10,32,1.50
2019,01,18,10,33,1.10
2019,01,18,10,34,1.00
2019,01,18,10,35,1.70
2019,01,18,10,36,0.80
2019,01,18,10,37,0.60
2019,01,18,10,38,0.80
2019,01,18,10,39,1.30
2019,01,18,10,40,0.00
2019,01,18,10,41,0.10
2019,01,18,10,42,2.90
2019,01,18,10,43,1.10
2019,01,18,10,44,0.70
2019,01,18,10,45,2.60
2019,01,18,10,46,5.40
2019,01,18,10,47,7.20
2019,01,18,10,48,3.30
2019,01,18,10,49,2.60
2019,01,18,10,50,4.10
2019,01,18,10,51,1.80
2019,01,18,10,52,1.60
2019,01,18,10,53,3.40
2019,01,18,10,54,3.40
2019,01,18,10,55,2.60
2019,01,18,10,56,2.70
2019,01,18,10,57,3.30
2019,01,18,10,58,1.20
2019,01,18,10,59,0.50
2019,01,18,11,00,0.40
2019,01,18,11,01,0.20
2019,01,18,11,02,2.10
2019,01,18,11,03,1.30
2019,01,18,11,04,2.30
2019,01,18,11,05,1.70
2019,01,18,11,06,1.60
2019,01,18,11,07,1.70
2019,01,18,11,08,3.70
2019,01,18,11,09,2.40
2019,01,18,11,10,2.30
2019,01,18,11,11,3.10
2019,01,18,11,12,1.30
2019,01,18,11,13,1.90
2019,01,18,11,14,1.50
2019,01,18,11,15,3.60
2019,01,18,11,16,1.50
2019,01,18,11,17,3.90
2019,01,18,11,18,7.60
2019,01,18,11,19,3.90
2019,01,18,11,20,4.80
2019,01,18,11,21,2.60
2019,01,18,11,22,5.10
2019,01,18,11,23,7.90
2019,01,18,11,24,6.70
2019,01,18,11,25,3.50
2019,01,18,11,26,7.00
2019,01,18,11,27,2.40
2019,01,18,11,28,3.20
2019,01,18,11,29,7.60
2019,01,18,11,30,2.90
2019,01,18,11,31,2.80
2019,01,18,11,32,11.10
2019,01,18,11,33,4.30
2019,01,18,11,34,5.90
2019,01,18,11,35,8.30
2019,01,18,11,36,6.40
2019,01,18,11,37,5.90
2019,01,18,11,38,5.20
2019,01,18,11,39,7.10
2019,01,18,11,40,6.70
2019,01,18,11,41,5.00
2019,01,18,11,42,4.80
2019,01,18,11,43,6.80
2019,01,18,11,44,7.30
2019,01,18,11,45,4.90
2019,01,18,11,46,8.30
2019,01,18,11,47,2.90
2019,01,18,11,48,5.20
2019,01,18,11,49,11.00
2019,01,18,11,50,7.90
2019,01,18,11,51,5.40
2019,01,18,11,52,6.90
2019,01,18,11,53,4.00
2019,01,18,11,54,3.00
2019,01,18,11,55,4.70
2019,01,18,11,56,9.40
2019,01,18,11,57,2.90
2019,01,18,11,58,7.40
2019,01,18,11,59,3.00
2019,01,18,12,00,4.50
2019,01,18,12,01,9.70
2019,01,18,12,02,5.20
2019,01,18,12,03,8.10
2019,01,18,12,04,2.70
2019,01,18,12,05,7.20
2019,01,18,12,06,7.70
2019,01,18,12,07,8.30
2019,01,18,12,08,4.20
2019,01,18,12,09,4.20
2019,01,18,12,10,8.50
2019,01,18,12,11,8.00
2019,01,18,12,12,12.60
2019,01,18,12,13,6.00
2019,01,18,12,14,1.60
2019,01,18,12,15,3.00
2019,01,18,12,16,8.50
2019,01,18,12,17,4.00
2019,01,18,12,18,2.70
2019,01,18,12,19,5.60
2019,01,18,12,20,5.60
2019,01,18,12,21,9.50
2019,01,18,12,22,9.90
2019,01,18,12,23,3.10
2019,01,18,12,24,10.80
2019,01,18,12,25,4.00
2019,01,18,12,26,5.40
2019,01,18,12,27,6.30
2019,01,18,12,28,8.00
2019,01,18,12,29,8.50
2019,01,18,12,30,4.50
2019,01,18,12,31,5.10
2019,01,18,12,32,5.50
2019,01,18,12,33,3.00
2019,01,18,12,34,2.90
2019,01,18,12,35,9.80
2019,01,18,12,36,6.90
2019,01,18,12,37,3.00
2019,01,18,12,38,2.70
2019,01,18,12,39,3.80
2019,01,18,12,40,5.50
2019,01,18,12,41,6.40
2019,01,18,12,42,8.60
2019,01,18,12,43,9.20
2019,01,18,12,44,5.70
2019,01,18,12,45,3.80
2019,01,18,12,46,2.90
2019,01,18,12,47,4.40
2019,01,18,12,48,6.70
2019,01,18,12,49,9.30
2019,01,18,12,50,5.90
2019,01,18,12,51,6.40
2019,01,18,12,52,7.30
2019,01,18,12,53,5.40
2019,01,18,12,54,3.20
2019,01,18,12,55,4.50
2019,01,18,12,56,4.70
2019,01,18,12,57,4.40
2019,01,18,12,58,4.00
2019,01,18,12,59,4.30
2019,01,18,13,00,3.60
2019,01,18,13,01,6.10
2019,01,18,13,02,9.50
2019,01,18,13,03,9.20
2019,01,18,13,04,7.30
2019,01,18,13,05,7.70
2019,01,18,13,06,9.10
2019,01,18,13,07,8.00
2019,01,18,13,08,10.30
2019,01,18,13,09,10.40
2019,01,18,13,10,6.30
2019,01,18,13,11,7.90
2019,01,18,13,12,5.90
2019,01,18,13,13,5.70
2019,01,18,13,14,7.20
2019,01,18,13,15,2.90
2019,01,18,13,16,10.30
2019,01,18,13,17,5.00
2019,01,18,13,18,4.60
2019,01,18,13,19,2.20
2019,01,18,13,20,4.50
2019,01,18,13,21,4.60
2019,01,18,13,22,5.10
2019,01,18,13,23,6.00
2019,01,18,13,24,7.10
2019,01,18,13,25,3.90
2019,01,18,13,26,2.10
2019,01,18,13,27,0.80
2019,01,18,13,28,4.90
2019,01,18,13,29,14.70
2019,01,18,13,30,6.60
2019,01,18,13,31,7.10
2019,01,18,13,32,7.20
2019,01,18,13,33,5.50
2019,01,18,13,34,4.70
2019,01,18,13,35,3.50
2019,01,18,13,36,4.00
2019,01,18,13,37,6.50
2019,01,18,13,38,6.10
2019,01,18,13,39,7.00
2019,01,18,13,40,7.40
2019,01,18,13,41,4.40
2019,01,18,13,42,5.40
2019,01,18,13,43,4.50
2019,01,18,13,44,3.70
2019,01,18,13,45,6.90
2019,01,18,13,46,4.00
2019,01,18,13,47,3.00
2019,01,18,13,48,4.30
2019,01,18,13,49,6.90
2019,01,18,13,50,5.30
2019,01,18,13,51,6.90
2019,01,18,13,52,11.10
2019,01,18,13,53,4.60
2019,01,18,13,54,3.20
2019,01,18,13,55,3.60
2019,01,18,13,56,6.40
2019,01,18,13,57,3.30
2019,01,18,13,58,6.30
2019,01,18,13,59,6.20
2019,01,18,14,00,11.50
2019,01,18,14,01,7.50
2019,01,18,14,02,8.20
2019,01,18,14,03,11.20
2019,01,18,14,04,3.90
2019,01,18,14,05,5.50
2019,01,18,14,06,5.20
2019,01,18,14,07,3.60
2019,01,18,14,08,5.60
2019,01,18,14,09,5.60
2019,01,18,14,10,13.20
2019,01,18,14,11,7.90
2019,01,18,14,12,14.00
2019,01,18,14,13,5.70
2019,01,18,14,14,8.50
2019,01,18,14,15,5.10
2019,01,18,14,16,6.70
2019,01,18,14,17,7.00
2019,01,18,14,18,6.70
2019,01,18,14,19,2.80
2019,01,18,14,20,4.00
2019,01,18,14,21,3.30
2019,01,18,14,22,2.50
2019,01,18,14,23,3.20
2019,01,18,14,24,6.40
2019,01,18,14,25,5.20
2019,01,18,14,26,5.30
2019,01,18,14,27,4.50
2019,01,18,14,28,3.00
2019,01,18,14,29,4.80
2019,01,18,14,30,6.80
2019,01,18,14,31,7.40
2019,01,18,14,32,2.30
2019,01,18,14,33,4.50
2019,01,18,14,34,13.40
2019,01,18,14,35,7.10
2019,01,18,14,36,6.00
2019,01,18,14,37,4.00
2019,01,18,14,38,10.40
2019,01,18,14,39,11.70
2019,01,18,14,40,6.10
2019,01,18,14,41,2.40
2019,01,18,14,42,2.30
2019,01,18,14,43,4.00
2019,01,18,14,44,5.50
2019,01,18,14,45,11.70
2019,01,18,14,46,3.90
2019,01,18,14,47,5.40
2019,01,18,14,48,10.20
2019,01,18,14,49,8.00
2019,01,18,14,50,10.10
2019,01,18,14,51,6.30
2019,01,18,14,52,3.30
2019,01,18,14,53,8.50
2019,01,18,14,54,9.70
2019,01,18,14,55,5.50
2019,01,18,14,56,6.10
2019,01,18,14,57,3.80
2019,01,18,14,58,1.70
2019,01,18,14,59,2.70
2019,01,18,15,00,4.00
2019,01,18,15,01,11.60
2019,01,18,15,02,6.90
2019,01,18,15,03,5.20
2019,01,18,15,04,4.60
2019,01,18,15,05,3.80
2019,01,18,15,06,6.20
2019,01,18,15,07,11.10
2019,01,18,15,08,10.80
2019,01,18,15,09,11.80
2019,01,18,15,10,12.90
2019,01,18,15,11,14.20
2019,01,18,15,12,11.60
2019,01,18,15,13,6.00
2019,01,18,15,14,8.70
2019,01,18,15,15,8.30
2019,01,18,15,16,11.30
2019,01,18,15,17,18.40
2019,01,18,15,18,6.00
2019,01,18,15,19,6.40
2019,01,18,15,20,5.90
2019,01,18,15,21,21.50
2019,01,18,15,22,5.20
2019,01,18,15,23,5.90
2019,01,18,15,24,8.90
2019,01,18,15,25,8.90
2019,01,18,15,26,4.30
2019,01,18,15,27,7.10
2019,01,18,15,28,8.90
2019,01,18,15,29,10.70
2019,01,18,15,30,14.90
2019,01,18,15,31,7.10
2019,01,18,15,32,7.50
2019,01,18,15,33,3.80
2019,01,18,15,34,7.70
2019,01,18,15,35,12.50
2019,01,18,15,36,5.30
2019,01,18,15,37,4.30
2019,01,18,15,38,7.00
2019,01,18,15,39,4.90
2019,01,18,15,40,3.00
2019,01,18,15,41,6.10
2019,01,18,15,42,14.60
2019,01,18,15,43,9.40
2019,01,18,15,44,7.70
2019,01,18,15,45,5.60
2019,01,18,15,46,6.60
2019,01,18,15,47,8.90
2019,01,18,15,48,18.00
2019,01,18,15,49,12.30
2019,01,18,15,50,13.00
2019,01,18,15,51,19.20
2019,01,18,15,52,12.20
2019,01,18,15,53,13.80
2019,01,18,15,54,11.80
2019,01,18,15,55,7.90
2019,01,18,15,56,13.80
2019,01,18,15,57,11.50
2019,01,18,15,58,10.60
2019,01,18,15,59,5.70
2019,01,18,16,00,10.10
2019,01,18,16,01,8.50
2019,01,18,16,02,4.30
2019,01,18,16,03,5.10
2019,01,18,16,04,5.10
2019,01,18,16,05,8.90
2019,01,18,16,06,6.10
2019,01,18,16,07,8.70
2019,01,18,16,08,13.90
2019,01,18,16,09,18.80
2019,01,18,16,10,15.50
2019,01,18,16,11,11.70
2019,01,18,16,12,13.90
2019,01,18,16,13,10.80
2019,01,18,16,14,11.50
2019,01,18,16,15,16.50
2019,01,18,16,16,12.30
2019,01,18,16,17,3.70
2019,01,18,16,18,10.60
2019,01,18,16,19,13.20
2019,01,18,16,20,13.80
2019,01,18,16,21,11.40
2019,01,18,16,22,12.60
2019,01,18,16,23,15.10
2019,01,18,16,24,15.10
2019,01,18,16,25,13.20
2019,01,18,16,26,13.10
2019,01,18,16,27,8.00
2019,01,18,16,28,14.30
2019,01,18,16,29,11.40
2019,01,18,16,30,7.90
2019,01,18,16,31,9.10
2019,01,18,16,32,5.80
2019,01,18,16,33,11.90
2019,01,18,16,34,19.10
2019,01,18,16,35,7.00
2019,01,18,16,36,6.20
2019,01,18,16,37,12.90
2019,01,18,16,38,15.60
2019,01,18,16,39,13.70
2019,01,18,16,40,12.50
2019,01,18,16,41,11.20
2019,01,18,16,42,9.30
2019,01,18,16,43,7.80
2019,01,18,16,44,6.70
2019,01,18,16,45,12.30
2019,01,18,16,46,7.10
2019,01,18,16,47,5.80
2019,01,18,16,48,15.40
2019,01,18,16,49,9.50
2019,01,18,16,50,13.90
2019,01,18,16,51,7.00
2019,01,18,16,52,3.30
2019,01,18,16,53,4.60
2019,01,18,16,54,8.80
2019,01,18,16,55,7.80
2019,01,18,16,56,15.60
2019,01,18,16,57,11.10
2019,01,18,16,58,19.30
2019,01,18,16,59,13.50
2019,01,18,17,00,4.90
2019,01,18,17,01,6.50
2019,01,18,17,02,7.20
2019,01,18,17,03,9.10
2019,01,18,17,04,16.90
2019,01,18,17,05,19.80
2019,01,18,17,06,14.70
2019,01,18,17,07,21.40
2019,01,18,17,08,16.10
2019,01,18,17,09,16.70
2019,01,18,17,10,11.90
2019,01,18,17,11,10.40
2019,01,18,17,12,8.60
2019,01,18,17,13,7.10
2019,01,18,17,14,16.40
2019,01,18,17,15,9.20
2019,01,18,17,16,13.50
2019,01,18,17,17,9.70
2019,01,18,17,18,13.30
2019,01,18,17,19,5.80
2019,01,18,17,20,7.60
2019,01,18,17,21,10.10
2019,01,18,17,22,14.40
2019,01,18,17,23,6.90
2019,01,18,17,24,10.30
2019,01,18,17,25,11.20
2019,01,18,17,26,6.30
2019,01,18,17,27,15.40
2019,01,18,17,28,19.10
2019,01,18,17,29,15.30
2019,01,18,17,30,15.70
2019,01,18,17,31,9.20
2019,01,18,17,32,3.40
2019,01,18,17,33,5.70
2019,01,18,17,34,12.60
2019,01,18,17,35,3.50
2019,01,18,17,36,15.60
2019,01,18,17,37,10.40
2019,01,18,17,38,6.00
2019,01,18,17,39,8.30
2019,01,18,17,40,7.80
2019,01,18,17,41,15.80
2019,01,18,17,42,14.50
2019,01,18,17,43,7.20
2019,01,18,17,44,6.10
2019,01,18,17,45,10.40
2019,01,18,17,46,14.20
2019,01,18,17,47,7.60
2019,01,18,17,48,14.60
2019,01,18,17,49,8.60
2019,01,18,17,50,8.30
2019,01,18,17,51,5.10
2019,01,18,17,52,16.30
2019,01,18,17,53,7.00
2019,01,18,17,54,10.90
2019,01,18,17,55,19.40
2019,01,18,17,56,4.40
2019,01,18,17,57,13.60
2019,01,18,17,58,5.20
2019,01,18,17,59,13.50
2019,01,18,18,00,10.40
2019,01,18,18,01,8.00